ACA403 CYUL-CYYZ

Flight info

Callsign ACA403
Flight time 0h 54m
Altitude 36000
Route BOBKI DCT MELTI DCT TORNI RAGID6
Aircraft A321/M-SDE3FGHIRWY/LB1

Departure

Time 2026-05-05 23:20
Airport Montreal / Pierre Elliott Trudeau International Airport (CYUL)

Arrival

Time 2026-05-06 00:14
Airport Toronto Pearson International Airport (CYYZ)
Time Latitude Longitude Altitude Speed Heading
2026-05-05 22:56 45.45933 -73.74848 105 ft 0 kts 178°
2026-05-05 23:09 45.45944 -73.74849 104 ft 4 kts 172°
2026-05-05 23:09 45.45966 -73.74851 104 ft 4 kts 168°
2026-05-05 23:09 45.45979 -73.74867 104 ft 4 kts 93°
2026-05-05 23:10 45.45978 -73.74903 102 ft 4 kts 88°
2026-05-05 23:10 45.45978 -73.74914 102 ft 0 kts 88°
2026-05-05 23:12 45.45979 -73.74896 102 ft 7 kts 88°
2026-05-05 23:12 45.45975 -73.74759 105 ft 18 kts 107°
2026-05-05 23:12 45.45967 -73.74595 105 ft 16 kts 84°
2026-05-05 23:12 45.45992 -73.74446 104 ft 15 kts 66°
2026-05-05 23:13 45.46056 -73.74316 103 ft 17 kts 49°
2026-05-05 23:13 45.46130 -73.74198 104 ft 15 kts 62°
2026-05-05 23:13 45.46143 -73.74068 104 ft 12 kts 78°
2026-05-05 23:13 45.46196 -73.73983 104 ft 14 kts 43°
2026-05-05 23:14 45.46289 -73.73860 106 ft 20 kts 42°
2026-05-05 23:14 45.46381 -73.73739 107 ft 17 kts 43°
2026-05-05 23:14 45.46461 -73.73635 109 ft 14 kts 42°
2026-05-05 23:14 45.46535 -73.73539 110 ft 15 kts 43°
2026-05-05 23:15 45.46625 -73.73421 110 ft 17 kts 43°
2026-05-05 23:15 45.46708 -73.73311 112 ft 16 kts 42°
2026-05-05 23:15 45.46794 -73.73199 114 ft 18 kts 43°
2026-05-05 23:15 45.46889 -73.73075 114 ft 18 kts 43°
2026-05-05 23:16 45.46983 -73.72951 113 ft 19 kts 43°
2026-05-05 23:16 45.47086 -73.72816 115 ft 20 kts 43°
2026-05-05 23:16 45.47183 -73.72690 118 ft 18 kts 41°
2026-05-05 23:16 45.47280 -73.72562 116 ft 20 kts 42°
2026-05-05 23:17 45.47382 -73.72428 115 ft 20 kts 42°
2026-05-05 23:17 45.47486 -73.72293 116 ft 20 kts 43°
2026-05-05 23:17 45.47590 -73.72156 117 ft 20 kts 42°
2026-05-05 23:17 45.47686 -73.72031 119 ft 18 kts 43°
2026-05-05 23:18 45.47771 -73.71919 118 ft 16 kts 43°
2026-05-05 23:18 45.47802 -73.71798 122 ft 14 kts 115°
2026-05-05 23:18 45.47736 -73.71667 123 ft 10 kts 133°
2026-05-05 23:18 45.47694 -73.71632 120 ft 5 kts 193°
2026-05-05 23:19 45.47663 -73.71658 124 ft 5 kts 219°
2026-05-05 23:19 45.47657 -73.71664 123 ft 0 kts 221°
2026-05-05 23:19 45.47628 -73.71701 122 ft 32 kts 221°
2026-05-05 23:19 45.47218 -73.72237 116 ft 121 kts 223°
2026-05-05 23:20 45.46446 -73.73236 329 ft 165 kts 223°
2026-05-05 23:20 45.45593 -73.74321 1260 ft 165 kts 226°
2026-05-05 23:20 45.44920 -73.75641 2081 ft 174 kts 253°
2026-05-05 23:20 45.44816 -73.77463 2479 ft 195 kts 266°
2026-05-05 23:21 45.44758 -73.79522 2778 ft 218 kts 265°
2026-05-05 23:21 45.44665 -73.81695 3459 ft 227 kts 264°
2026-05-05 23:21 45.44558 -73.83964 4270 ft 232 kts 264°
2026-05-05 23:21 45.44457 -73.86272 5128 ft 234 kts 264°
2026-05-05 23:22 45.44357 -73.88586 6066 ft 233 kts 264°
2026-05-05 23:22 45.44255 -73.90875 7000 ft 231 kts 263°
2026-05-05 23:22 45.44151 -73.93156 7877 ft 231 kts 262°
2026-05-05 23:22 45.44045 -73.95432 8775 ft 230 kts 261°
2026-05-05 23:23 45.43937 -73.97698 9657 ft 230 kts 260°
2026-05-05 23:23 45.43825 -73.99976 10314 ft 235 kts 261°
2026-05-05 23:23 45.43702 -74.02374 10502 ft 257 kts 261°
2026-05-05 23:23 45.43564 -74.05031 10642 ft 280 kts 261°
2026-05-05 23:24 45.43419 -74.07904 10766 ft 302 kts 262°
2026-05-05 23:24 45.43268 -74.10961 11099 ft 315 kts 262°
2026-05-05 23:24 45.43116 -74.14094 11722 ft 319 kts 262°
2026-05-05 23:24 45.42962 -74.17266 12414 ft 323 kts 262°
2026-05-05 23:25 45.42806 -74.20464 13093 ft 325 kts 262°
2026-05-05 23:25 45.42646 -74.23690 13735 ft 328 kts 262°
2026-05-05 23:25 45.42484 -74.26897 14315 ft 331 kts 262°
2026-05-05 23:25 45.42318 -74.30184 14902 ft 334 kts 262°
2026-05-05 23:26 45.42149 -74.33491 15515 ft 336 kts 262°
2026-05-05 23:26 45.41978 -74.36819 16074 ft 339 kts 262°
2026-05-05 23:26 45.41805 -74.40180 16607 ft 342 kts 262°
2026-05-05 23:26 45.41556 -74.43552 17128 ft 343 kts 256°
2026-05-05 23:27 45.41017 -74.46871 17644 ft 346 kts 254°
2026-05-05 23:27 45.40458 -74.50210 18127 ft 349 kts 254°
2026-05-05 23:27 45.39900 -74.53536 18558 ft 352 kts 254°
2026-05-05 23:27 45.39332 -74.56929 19002 ft 354 kts 254°
2026-05-05 23:28 45.38758 -74.60351 19444 ft 357 kts 254°
2026-05-05 23:28 45.38179 -74.63793 19890 ft 359 kts 254°
2026-05-05 23:28 45.37595 -74.67265 20344 ft 362 kts 254°
2026-05-05 23:28 45.37008 -74.70755 20780 ft 365 kts 254°
2026-05-05 23:29 45.36413 -74.74274 21273 ft 366 kts 254°
2026-05-05 23:29 45.35817 -74.77786 21842 ft 366 kts 254°
2026-05-05 23:29 45.35218 -74.81304 22311 ft 367 kts 254°
2026-05-05 23:29 45.34613 -74.84849 22675 ft 371 kts 254°
2026-05-05 23:30 45.34010 -74.88382 23048 ft 374 kts 254°
2026-05-05 23:30 45.33595 -74.90815 23316 ft 376 kts 254°
2026-05-05 23:30 45.32773 -74.95618 23786 ft 379 kts 254°
2026-05-05 23:30 45.32147 -74.99262 24155 ft 380 kts 254°
2026-05-05 23:31 45.31517 -75.02913 24520 ft 381 kts 254°
2026-05-05 23:31 45.30881 -75.06581 24871 ft 383 kts 254°
2026-05-05 23:31 45.30244 -75.10256 25233 ft 384 kts 254°
2026-05-05 23:31 45.29603 -75.13948 25591 ft 386 kts 254°
2026-05-05 23:32 45.28960 -75.17647 25998 ft 387 kts 254°
2026-05-05 23:32 45.28324 -75.21304 26402 ft 386 kts 254°
2026-05-05 23:32 45.27680 -75.25004 26792 ft 386 kts 254°
2026-05-05 23:32 45.27037 -75.28687 27269 ft 383 kts 254°
2026-05-05 23:33 45.26398 -75.32343 27747 ft 381 kts 254°
2026-05-05 23:33 45.25760 -75.35978 28217 ft 379 kts 254°
2026-05-05 23:33 45.25123 -75.39591 28677 ft 377 kts 254°
2026-05-05 23:33 45.24486 -75.43187 29124 ft 375 kts 253°
2026-05-05 23:34 45.23851 -75.46763 29576 ft 373 kts 253°
2026-05-05 23:34 45.23226 -75.50276 29959 ft 371 kts 254°
2026-05-05 23:34 45.22598 -75.53813 30340 ft 369 kts 254°
2026-05-05 23:34 45.21970 -75.57336 30728 ft 368 kts 255°
2026-05-05 23:35 45.21346 -75.60844 31125 ft 366 kts 255°
2026-05-05 23:35 45.20723 -75.64328 31579 ft 363 kts 255°
2026-05-05 23:35 45.20105 -75.67790 32008 ft 361 kts 255°
2026-05-05 23:35 45.19489 -75.71228 32422 ft 359 kts 256°
2026-05-05 23:36 45.18876 -75.74644 32834 ft 357 kts 256°
2026-05-05 23:36 45.18264 -75.78047 33235 ft 355 kts 256°
2026-05-05 23:36 45.17664 -75.81384 33648 ft 353 kts 256°
2026-05-05 23:36 45.17059 -75.84748 33991 ft 352 kts 257°
2026-05-05 23:37 45.16451 -75.88116 34243 ft 353 kts 257°
2026-05-05 23:37 45.15838 -75.91494 34453 ft 355 kts 257°
2026-05-05 23:37 45.15221 -75.94889 34668 ft 357 kts 257°
2026-05-05 23:37 45.14603 -75.98295 34880 ft 358 kts 257°
2026-05-05 23:38 45.13981 -76.01719 35089 ft 360 kts 257°
2026-05-05 23:38 45.13353 -76.05153 35324 ft 361 kts 257°
2026-05-05 23:38 45.12729 -76.08542 35574 ft 361 kts 257°
2026-05-05 23:38 45.12091 -76.11994 35702 ft 363 kts 257°
2026-05-05 23:39 45.10809 -76.18906 35785 ft 363 kts 257°
2026-05-05 23:39 45.09083 -76.25621 35792 ft 367 kts 245°
2026-05-05 23:40 45.06588 -76.31938 35791 ft 368 kts 245°
2026-05-05 23:40 45.04105 -76.38206 35791 ft 368 kts 245°
2026-05-05 23:41 45.01615 -76.44517 35799 ft 368 kts 245°
2026-05-05 23:41 44.99119 -76.50822 35798 ft 368 kts 245°
2026-05-05 23:42 44.96621 -76.57111 35810 ft 367 kts 245°
2026-05-05 23:42 44.94144 -76.63342 35814 ft 366 kts 245°
2026-05-05 23:43 44.91650 -76.69600 35816 ft 366 kts 245°
2026-05-05 23:43 44.89146 -76.75838 35816 ft 365 kts 245°
2026-05-05 23:44 44.86645 -76.82068 35821 ft 365 kts 245°
2026-05-05 23:44 44.84150 -76.88300 35823 ft 365 kts 245°
2026-05-05 23:45 44.81665 -76.94480 35800 ft 365 kts 245°
2026-05-05 23:45 44.79160 -77.00677 35843 ft 364 kts 245°
2026-05-05 23:46 44.76665 -77.06865 35836 ft 363 kts 245°
2026-05-05 23:46 44.74168 -77.13035 35835 ft 363 kts 245°
2026-05-05 23:47 44.71687 -77.19153 35845 ft 362 kts 245°
2026-05-05 23:47 44.69188 -77.25301 35841 ft 362 kts 245°
2026-05-05 23:48 44.66684 -77.31440 35812 ft 362 kts 245°
2026-05-05 23:48 44.64182 -77.37571 35822 ft 362 kts 245°
2026-05-05 23:49 44.61699 -77.43655 35827 ft 361 kts 245°
2026-05-05 23:49 44.59196 -77.49767 35834 ft 361 kts 245°
2026-05-05 23:50 44.57941 -77.52822 35583 ft 361 kts 244°
2026-05-05 23:50 44.56690 -77.55863 35328 ft 359 kts 244°
2026-05-05 23:50 44.55441 -77.58893 35084 ft 358 kts 244°
2026-05-05 23:50 44.54195 -77.61915 34842 ft 357 kts 244°
2026-05-05 23:51 44.52955 -77.64926 34594 ft 356 kts 244°
2026-05-05 23:51 44.51733 -77.67887 34327 ft 356 kts 244°
2026-05-05 23:51 44.50496 -77.70887 34095 ft 355 kts 244°
2026-05-05 23:51 44.49260 -77.73881 33847 ft 355 kts 243°
2026-05-05 23:52 44.48021 -77.76871 33574 ft 355 kts 243°
2026-05-05 23:52 44.46781 -77.79860 33304 ft 356 kts 243°
2026-05-05 23:52 44.45532 -77.82864 32479 ft 360 kts 243°
2026-05-05 23:52 44.44268 -77.85905 31557 ft 364 kts 242°
2026-05-05 23:53 44.42985 -77.88983 30700 ft 367 kts 242°
2026-05-05 23:53 44.41692 -77.92085 29760 ft 372 kts 242°
2026-05-05 23:53 44.40395 -77.95190 28687 ft 377 kts 241°
2026-05-05 23:53 44.39064 -77.98369 27661 ft 381 kts 241°
2026-05-05 23:54 44.37720 -78.01573 26625 ft 384 kts 240°
2026-05-05 23:54 44.36366 -78.04802 25587 ft 387 kts 240°
2026-05-05 23:54 44.35000 -78.08056 24595 ft 390 kts 240°
2026-05-05 23:54 44.33627 -78.11327 23633 ft 392 kts 239°
2026-05-05 23:55 44.32243 -78.14617 22540 ft 394 kts 239°
2026-05-05 23:55 44.30860 -78.17911 21612 ft 392 kts 239°
2026-05-05 23:55 44.29951 -78.20071 21103 ft 388 kts 239°
2026-05-05 23:55 44.28591 -78.23295 20332 ft 383 kts 239°
2026-05-05 23:56 44.27245 -78.26477 19576 ft 379 kts 239°
2026-05-05 23:56 44.25924 -78.29633 18831 ft 375 kts 240°
2026-05-05 23:56 44.24742 -78.32860 18099 ft 372 kts 243°
2026-05-05 23:56 44.23464 -78.35965 17263 ft 367 kts 240°
2026-05-05 23:57 44.21740 -78.39992 16201 ft 363 kts 240°
2026-05-05 23:57 44.20866 -78.42026 15671 ft 361 kts 240°
2026-05-05 23:57 44.19582 -78.45007 14904 ft 357 kts 240°
2026-05-05 23:57 44.18329 -78.47915 14171 ft 353 kts 241°
2026-05-05 23:58 44.17069 -78.50835 13412 ft 351 kts 241°
2026-05-05 23:58 44.15813 -78.53743 12615 ft 349 kts 241°
2026-05-05 23:58 44.14573 -78.56610 12332 ft 345 kts 240°
2026-05-05 23:58 44.13342 -78.59460 12074 ft 339 kts 240°
2026-05-05 23:59 44.12150 -78.62209 11848 ft 324 kts 240°
2026-05-05 23:59 44.11007 -78.64834 11562 ft 313 kts 240°
2026-05-05 23:59 44.09892 -78.67382 11018 ft 309 kts 240°
2026-05-05 23:59 44.08768 -78.69952 10496 ft 306 kts 240°
2026-05-06 00:00 44.07692 -78.72421 10371 ft 291 kts 240°
2026-05-06 00:00 44.06670 -78.74766 10262 ft 277 kts 240°
2026-05-06 00:00 44.05698 -78.76997 10103 ft 263 kts 240°
2026-05-06 00:00 44.04774 -78.79127 9984 ft 251 kts 240°
2026-05-06 00:01 44.03819 -78.81053 9853 ft 241 kts 232°
2026-05-06 00:01 44.02708 -78.82732 9741 ft 231 kts 231°
2026-05-06 00:01 44.01639 -78.84330 9611 ft 220 kts 231°
2026-05-06 00:01 44.00622 -78.85846 9465 ft 209 kts 231°
2026-05-06 00:02 43.99653 -78.87294 9292 ft 201 kts 231°
2026-05-06 00:02 43.98709 -78.88711 8958 ft 199 kts 232°
2026-05-06 00:02 43.97773 -78.90119 8806 ft 200 kts 232°
2026-05-06 00:02 43.96836 -78.91556 8679 ft 201 kts 236°
2026-05-06 00:03 43.96170 -78.93234 8499 ft 198 kts 246°
2026-05-06 00:03 43.95580 -78.94965 8111 ft 200 kts 246°
2026-05-06 00:03 43.94991 -78.96689 7732 ft 201 kts 246°
2026-05-06 00:03 43.94391 -78.98449 7360 ft 203 kts 247°
2026-05-06 00:04 43.93786 -79.00225 6993 ft 204 kts 247°
2026-05-06 00:04 43.93180 -79.02011 6625 ft 205 kts 248°
2026-05-06 00:04 43.92570 -79.03810 6278 ft 207 kts 248°
2026-05-06 00:04 43.91956 -79.05614 6024 ft 205 kts 248°
2026-05-06 00:05 43.90712 -79.09279 6019 ft 212 kts 248°
2026-05-06 00:05 43.90082 -79.11131 6005 ft 213 kts 248°
2026-05-06 00:05 43.89454 -79.12966 5891 ft 209 kts 247°
2026-05-06 00:06 43.88815 -79.14835 5518 ft 211 kts 247°
2026-05-06 00:06 43.88196 -79.16645 5147 ft 213 kts 247°
2026-05-06 00:06 43.87566 -79.18490 4759 ft 216 kts 247°
2026-05-06 00:06 43.86911 -79.20413 4383 ft 219 kts 246°
2026-05-06 00:07 43.86258 -79.22325 4073 ft 219 kts 246°
2026-05-06 00:07 43.85606 -79.24227 4026 ft 220 kts 246°
2026-05-06 00:07 43.84952 -79.26135 4026 ft 221 kts 246°
2026-05-06 00:07 43.84287 -79.28068 4027 ft 221 kts 246°
2026-05-06 00:08 43.83626 -79.29993 4027 ft 221 kts 246°
2026-05-06 00:08 43.82975 -79.31891 4026 ft 221 kts 246°
2026-05-06 00:08 43.82314 -79.33812 4026 ft 221 kts 246°
2026-05-06 00:08 43.81650 -79.35738 4026 ft 222 kts 246°
2026-05-06 00:09 43.80978 -79.37690 4025 ft 222 kts 246°
2026-05-06 00:09 43.80326 -79.39586 4027 ft 222 kts 246°
2026-05-06 00:09 43.79668 -79.41499 4020 ft 210 kts 246°
2026-05-06 00:09 43.79052 -79.43247 3981 ft 198 kts 241°
2026-05-06 00:10 43.78123 -79.44758 3643 ft 197 kts 229°
2026-05-06 00:10 43.77230 -79.46096 3312 ft 190 kts 228°
2026-05-06 00:10 43.76342 -79.47412 3020 ft 182 kts 227°
2026-05-06 00:10 43.75512 -79.48629 2801 ft 169 kts 227°
2026-05-06 00:11 43.74729 -79.49773 2558 ft 160 kts 226°
2026-05-06 00:11 43.73999 -79.50841 2352 ft 147 kts 227°
2026-05-06 00:11 43.73311 -79.51844 2145 ft 141 kts 227°
2026-05-06 00:11 43.72640 -79.52823 1966 ft 139 kts 228°
2026-05-06 00:12 43.71976 -79.53792 1769 ft 140 kts 229°
2026-05-06 00:12 43.71305 -79.54765 1593 ft 139 kts 229°
2026-05-06 00:12 43.70640 -79.55738 1376 ft 139 kts 227°
2026-05-06 00:12 43.69969 -79.56713 1207 ft 141 kts 229°
2026-05-06 00:13 43.69299 -79.57682 992 ft 141 kts 227°
2026-05-06 00:13 43.68610 -79.58666 824 ft 143 kts 227°
2026-05-06 00:13 43.67942 -79.59656 626 ft 142 kts 229°
2026-05-06 00:13 43.67298 -79.60609 565 ft 117 kts 226°
2026-05-06 00:14 43.66875 -79.61218 570 ft 62 kts 226°
2026-05-06 00:14 43.66667 -79.61525 567 ft 36 kts 227°
2026-05-06 00:14 43.66560 -79.61763 563 ft 15 kts 250°
2026-05-06 00:14 43.66545 -79.61891 559 ft 9 kts 285°
2026-05-06 00:15 43.66576 -79.61951 559 ft 5 kts 324°
2026-05-06 00:15 43.66597 -79.61944 565 ft 4 kts 30°
2026-05-06 00:15 43.66634 -79.61900 565 ft 13 kts 46°
2026-05-06 00:15 43.66720 -79.61771 568 ft 21 kts 48°
2026-05-06 00:16 43.66816 -79.61637 571 ft 19 kts 45°
2026-05-06 00:16 43.66906 -79.61506 569 ft 18 kts 46°
2026-05-06 00:16 43.66986 -79.61389 569 ft 16 kts 47°
2026-05-06 00:16 43.67062 -79.61278 565 ft 17 kts 46°
2026-05-06 00:17 43.67144 -79.61158 568 ft 18 kts 46°
2026-05-06 00:17 43.67196 -79.61149 564 ft 7 kts 307°
2026-05-06 00:17 43.67266 -79.61248 563 ft 23 kts 315°
2026-05-06 00:17 43.67386 -79.61404 565 ft 18 kts 316°
2026-05-06 00:18 43.67478 -79.61523 566 ft 18 kts 316°
2026-05-06 00:18 43.67567 -79.61640 570 ft 17 kts 316°
2026-05-06 00:18 43.67654 -79.61752 563 ft 17 kts 317°
2026-05-06 00:18 43.67741 -79.61866 570 ft 17 kts 316°
2026-05-06 00:19 43.67821 -79.61971 563 ft 11 kts 316°
2026-05-06 00:19 43.67864 -79.62027 564 ft 8 kts 318°
2026-05-06 00:19 43.67937 -79.62053 565 ft 13 kts 19°
2026-05-06 00:19 43.68011 -79.61993 562 ft 12 kts 17°
2026-05-06 00:20 43.68079 -79.61933 564 ft 11 kts 47°
2026-05-06 00:20 43.68133 -79.61857 567 ft 11 kts 46°
2026-05-06 00:20 43.68169 -79.61773 562 ft 10 kts 87°
2026-05-06 00:20 43.68164 -79.61701 563 ft 7 kts 72°
2026-05-06 00:21 43.68185 -79.61651 565 ft 6 kts 59°
2026-05-06 00:21 43.68202 -79.61612 562 ft 1 kts 58°
2026-05-06 00:21 43.68204 -79.61609 568 ft 0 kts 58°
2026-05-06 00:21 43.68204 -79.61608 568 ft 0 kts 58°